Regional Weather Roundup
Issued by NWS

Home | Current Version | Previous Version | Graphics & Text | Print | Product List | Glossary On
Versions: 1 2 3 4 5 6 7 8 9 10 11 12 13 14 15 16 17 18 19 20 21 22 23 24 25 26 27 28 29 30 31 32 33 34 35 36 37 38 39 40 41 42 43 44 45 46 47 48 49 50
477
ASUS43 KBIS 261110
RWRND

NORTH DAKOTA REGIONAL WEATHER ROUNDUP
NATIONAL WEATHER SERVICE BISMARCK ND
600 AM CDT THU MAY 26 2016

NOTE: "FAIR" INDICATES FEW OR NO CLOUDS BELOW 12,000 FEET WITH NO
SIGNIFICANT WEATHER AND/OR OBSTRUCTIONS TO VISIBILITY.


NDZ001>003-009>011-017-261200-
NORTHWEST NORTH DAKOTA

CITY           SKY/WX    TMP DP  RH WIND       PRES   REMARKS
WILLISTON      FOG       47  46  97 W5        29.80F VSB 3/4
MINOT          CLOUDY    57  54  89 W9        29.75R
MINOT AFB      CLOUDY    55  55  97 NW7       29.74S FOG
$$

NDZ018>021-031>035-040>046-261200-
SOUTHWEST NORTH DAKOTA

CITY           SKY/WX    TMP DP  RH WIND       PRES   REMARKS
BISMARCK       CLEAR     45  44  97 SW3       29.80S
DICKINSON      CLOUDY    41  38  89 SW3       29.80F
GARRISON         N/A     49  48  97 W9        29.78R
HETTINGER ARPT CLEAR     35  34  96 W5        29.86S
$$

NDZ004>008-012>016-024-026-027-054-261200-
NORTHEAST NORTH DAKOTA

CITY           SKY/WX    TMP DP  RH WIND       PRES   REMARKS
GRAND FORKS    CLOUDY    57  55  93 SW3       29.71S
GRND FRKS AFB  CLOUDY    55  55 100 CALM      29.72S
DEVILS LAKE    CLOUDY    55  54  94 W6        29.73F
$$

NDZ022-023-025-028>030-036>039-047>053-261200-
SOUTHEAST NORTH DAKOTA

CITY           SKY/WX    TMP DP  RH WIND       PRES   REMARKS
FARGO          CLEAR     54  51  90 W7        29.73S
JAMESTOWN      CLOUDY    55  53  93 W12       29.75R
$$





USA.gov is the U.S. government's official web portal to all federal, state and local government web resources and services.